﻿測定場所 (Monitoring sites),日付 (Measurement date),時間 (Measurement time),線量率 最大値 (max) μGy/h,線量率 最小値 (min) μGy/h,線量率 平均値 (average) μGy/h,
江戸川 (Edogawa),2017-08-27,23:01～24:00,0.0576,0.0511,0.0544,
江戸川 (Edogawa),2017-08-27,22:01～23:00,0.0594,0.0499,0.0545,
江戸川 (Edogawa),2017-08-27,21:01～22:00,0.0568,0.0509,0.0543,
江戸川 (Edogawa),2017-08-27,20:01～21:00,0.0579,0.0515,0.0545,
江戸川 (Edogawa),2017-08-27,19:01～20:00,0.0571,0.0514,0.0542,
江戸川 (Edogawa),2017-08-27,18:01～19:00,0.0571,0.0503,0.0539,
江戸川 (Edogawa),2017-08-27,17:01～18:00,0.0576,0.0509,0.0539,
江戸川 (Edogawa),2017-08-27,16:01～17:00,0.0577,0.0507,0.0540,
江戸川 (Edogawa),2017-08-27,15:01～16:00,0.0591,0.0516,0.0543,
江戸川 (Edogawa),2017-08-27,14:01～15:00,0.0575,0.0512,0.0542,
江戸川 (Edogawa),2017-08-27,13:01～14:00,0.0580,0.0507,0.0543,
江戸川 (Edogawa),2017-08-27,12:01～13:00,0.0597,0.0510,0.0543,
江戸川 (Edogawa),2017-08-27,11:01～12:00,0.0574,0.0507,0.0542,
江戸川 (Edogawa),2017-08-27,10:01～11:00,0.0583,0.0507,0.0542,
江戸川 (Edogawa),2017-08-27,09:01～10:00,0.0576,0.0509,0.0543,
江戸川 (Edogawa),2017-08-27,08:01～09:00,0.0577,0.0512,0.0544,
江戸川 (Edogawa),2017-08-27,07:01～08:00,0.0580,0.0492,0.0542,
江戸川 (Edogawa),2017-08-27,06:01～07:00,0.0570,0.0516,0.0546,
江戸川 (Edogawa),2017-08-27,05:01～06:00,0.0571,0.0515,0.0545,
江戸川 (Edogawa),2017-08-27,04:01～05:00,0.0577,0.0503,0.0542,
江戸川 (Edogawa),2017-08-27,03:01～04:00,0.0569,0.0518,0.0548,
江戸川 (Edogawa),2017-08-27,02:01～03:00,0.0576,0.0499,0.0548,
江戸川 (Edogawa),2017-08-27,01:01～02:00,0.0599,0.0518,0.0546,
江戸川 (Edogawa),2017-08-27,00:01～01:00,0.0572,0.0484,0.0540,
江戸川 (Edogawa),2017-08-26,23:01～24:00,0.0585,0.0509,0.0545,
江戸川 (Edogawa),2017-08-26,22:01～23:00,0.0589,0.0501,0.0542,
江戸川 (Edogawa),2017-08-26,21:01～22:00,0.0573,0.0506,0.0542,
江戸川 (Edogawa),2017-08-26,20:01～21:00,0.0574,0.0506,0.0544,
江戸川 (Edogawa),2017-08-26,19:01～20:00,0.0600,0.0506,0.0543,
江戸川 (Edogawa),2017-08-26,18:01～19:00,0.0568,0.0509,0.0541,
江戸川 (Edogawa),2017-08-26,17:01～18:00,0.0572,0.0511,0.0543,
江戸川 (Edogawa),2017-08-26,16:01～17:00,0.0578,0.0518,0.0544,
江戸川 (Edogawa),2017-08-26,15:01～16:00,0.0590,0.0506,0.0552,
江戸川 (Edogawa),2017-08-26,14:01～15:00,0.0592,0.0522,0.0555,
江戸川 (Edogawa),2017-08-26,13:01～14:00,0.0573,0.0514,0.0542,
江戸川 (Edogawa),2017-08-26,12:01～13:00,0.0584,0.0508,0.0550,
江戸川 (Edogawa),2017-08-26,11:01～12:00,0.0583,0.0511,0.0552,
江戸川 (Edogawa),2017-08-26,10:01～11:00,0.0592,0.0529,0.0551,
江戸川 (Edogawa),2017-08-26,09:01～10:00,0.0580,0.0515,0.0553,
江戸川 (Edogawa),2017-08-26,08:01～09:00,0.0574,0.0518,0.0552,
江戸川 (Edogawa),2017-08-26,07:01～08:00,0.0575,0.0511,0.0543,
江戸川 (Edogawa),2017-08-26,06:01～07:00,0.0567,0.0510,0.0540,
江戸川 (Edogawa),2017-08-26,05:01～06:00,0.0577,0.0503,0.0542,
江戸川 (Edogawa),2017-08-26,04:01～05:00,0.0579,0.0513,0.0543,
江戸川 (Edogawa),2017-08-26,03:01～04:00,0.0579,0.0517,0.0543,
江戸川 (Edogawa),2017-08-26,02:01～03:00,0.0581,0.0514,0.0544,
江戸川 (Edogawa),2017-08-26,01:01～02:00,0.0591,0.0503,0.0542,
江戸川 (Edogawa),2017-08-26,00:01～01:00,0.0580,0.0506,0.0547,
江戸川 (Edogawa),2017-08-25,23:01～24:00,0.0581,0.0506,0.0545,
江戸川 (Edogawa),2017-08-25,22:01～23:00,0.0592,0.0515,0.0548,
江戸川 (Edogawa),2017-08-25,21:01～22:00,0.0580,0.0518,0.0544,
江戸川 (Edogawa),2017-08-25,20:01～21:00,0.0585,0.0513,0.0548,
江戸川 (Edogawa),2017-08-25,19:01～20:00,0.0585,0.0518,0.0545,
江戸川 (Edogawa),2017-08-25,18:01～19:00,0.0584,0.0519,0.0547,
江戸川 (Edogawa),2017-08-25,17:01～18:00,0.0574,0.0510,0.0545,
江戸川 (Edogawa),2017-08-25,16:01～17:00,0.0581,0.0506,0.0547,
江戸川 (Edogawa),2017-08-25,15:01～16:00,0.0578,0.0505,0.0540,
江戸川 (Edogawa),2017-08-25,14:01～15:00,0.0576,0.0510,0.0542,
江戸川 (Edogawa),2017-08-25,13:01～14:00,0.0589,0.0510,0.0543,
江戸川 (Edogawa),2017-08-25,12:01～13:00,0.0579,0.0511,0.0546,
江戸川 (Edogawa),2017-08-25,11:01～12:00,0.0589,0.0508,0.0542,
江戸川 (Edogawa),2017-08-25,10:01～11:00,0.0571,0.0509,0.0540,
江戸川 (Edogawa),2017-08-25,09:01～10:00,0.0571,0.0506,0.0541,
江戸川 (Edogawa),2017-08-25,08:01～09:00,0.0567,0.0502,0.0537,
江戸川 (Edogawa),2017-08-25,07:01～08:00,0.0565,0.0504,0.0536,
江戸川 (Edogawa),2017-08-25,06:01～07:00,0.0577,0.0503,0.0534,
江戸川 (Edogawa),2017-08-25,05:01～06:00,0.0575,0.0512,0.0544,
江戸川 (Edogawa),2017-08-25,04:01～05:00,0.0568,0.0511,0.0543,
江戸川 (Edogawa),2017-08-25,03:01～04:00,0.0578,0.0507,0.0544,
江戸川 (Edogawa),2017-08-25,02:01～03:00,0.0571,0.0505,0.0540,
江戸川 (Edogawa),2017-08-25,01:01～02:00,0.0575,0.0511,0.0542,
江戸川 (Edogawa),2017-08-25,00:01～01:00,0.0580,0.0502,0.0539,
江戸川 (Edogawa),2017-08-24,23:01～24:00,0.0558,0.0502,0.0536,
江戸川 (Edogawa),2017-08-24,22:01～23:00,0.0577,0.0501,0.0536,
江戸川 (Edogawa),2017-08-24,21:01～22:00,0.0573,0.0503,0.0538,
江戸川 (Edogawa),2017-08-24,20:01～21:00,0.0576,0.0501,0.0537,
江戸川 (Edogawa),2017-08-24,19:01～20:00,0.0556,0.0497,0.0532,
江戸川 (Edogawa),2017-08-24,18:01～19:00,0.0574,0.0502,0.0535,
江戸川 (Edogawa),2017-08-24,17:01～18:00,0.0588,0.0506,0.0537,
江戸川 (Edogawa),2017-08-24,16:01～17:00,0.0563,0.0498,0.0531,
江戸川 (Edogawa),2017-08-24,15:01～16:00,0.0582,0.0487,0.0537,
江戸川 (Edogawa),2017-08-24,14:01～15:00,0.0582,0.0500,0.0536,
江戸川 (Edogawa),2017-08-24,13:01～14:00,0.0574,0.0502,0.0537,
江戸川 (Edogawa),2017-08-24,12:01～13:00,0.0564,0.0504,0.0534,
江戸川 (Edogawa),2017-08-24,11:01～12:00,0.0572,0.0497,0.0535,
江戸川 (Edogawa),2017-08-24,10:01～11:00,0.0576,0.0518,0.0545,
江戸川 (Edogawa),2017-08-24,09:01～10:00,0.0581,0.0501,0.0540,
江戸川 (Edogawa),2017-08-24,08:01～09:00,0.0571,0.0510,0.0542,
江戸川 (Edogawa),2017-08-24,07:01～08:00,0.0573,0.0513,0.0545,
江戸川 (Edogawa),2017-08-24,06:01～07:00,0.0572,0.0507,0.0545,
江戸川 (Edogawa),2017-08-24,05:01～06:00,0.0576,0.0518,0.0543,
江戸川 (Edogawa),2017-08-24,04:01～05:00,0.0569,0.0516,0.0546,
江戸川 (Edogawa),2017-08-24,03:01～04:00,0.0572,0.0508,0.0542,
江戸川 (Edogawa),2017-08-24,02:01～03:00,0.0576,0.0506,0.0543,
江戸川 (Edogawa),2017-08-24,01:01～02:00,0.0575,0.0516,0.0545,
江戸川 (Edogawa),2017-08-24,00:01～01:00,0.0569,0.0507,0.0538,
江戸川 (Edogawa),2017-08-23,23:01～24:00,0.0558,0.0492,0.0531,
江戸川 (Edogawa),2017-08-23,22:01～23:00,0.0568,0.0504,0.0534,
江戸川 (Edogawa),2017-08-23,21:01～22:00,0.0565,0.0508,0.0535,
江戸川 (Edogawa),2017-08-23,20:01～21:00,0.0568,0.0497,0.0532,
江戸川 (Edogawa),2017-08-23,19:01～20:00,0.0572,0.0487,0.0537,
江戸川 (Edogawa),2017-08-23,18:01～19:00,0.0560,0.0506,0.0532,
江戸川 (Edogawa),2017-08-23,17:01～18:00,0.0568,0.0492,0.0530,
江戸川 (Edogawa),2017-08-23,16:01～17:00,0.0570,0.0500,0.0531,
江戸川 (Edogawa),2017-08-23,15:01～16:00,0.0573,0.0500,0.0531,
江戸川 (Edogawa),2017-08-23,14:01～15:00,0.0580,0.0497,0.0535,
江戸川 (Edogawa),2017-08-23,13:01～14:00,0.0580,0.0503,0.0544,
江戸川 (Edogawa),2017-08-23,12:01～13:00,0.0578,0.0507,0.0540,
江戸川 (Edogawa),2017-08-23,11:01～12:00,0.0570,0.0501,0.0536,
江戸川 (Edogawa),2017-08-23,10:01～11:00,0.0577,0.0493,0.0538,
江戸川 (Edogawa),2017-08-23,09:01～10:00,0.0577,0.0493,0.0538,
江戸川 (Edogawa),2017-08-23,08:01～09:00,0.0568,0.0512,0.0538,
江戸川 (Edogawa),2017-08-23,07:01～08:00,0.0560,0.0504,0.0532,
江戸川 (Edogawa),2017-08-23,06:01～07:00,0.0568,0.0500,0.0532,
江戸川 (Edogawa),2017-08-23,05:01～06:00,0.0557,0.0496,0.0528,
江戸川 (Edogawa),2017-08-23,04:01～05:00,0.0556,0.0496,0.0529,
江戸川 (Edogawa),2017-08-23,03:01～04:00,0.0575,0.0492,0.0526,
江戸川 (Edogawa),2017-08-23,02:01～03:00,0.0553,0.0487,0.0527,
江戸川 (Edogawa),2017-08-23,01:01～02:00,0.0547,0.0499,0.0522,
江戸川 (Edogawa),2017-08-23,00:01～01:00,0.0565,0.0487,0.0522,
江戸川 (Edogawa),2017-08-22,23:01～24:00,0.0567,0.0489,0.0521,
江戸川 (Edogawa),2017-08-22,22:01～23:00,0.0556,0.0492,0.0520,
江戸川 (Edogawa),2017-08-22,21:01～22:00,0.0547,0.0499,0.0524,
江戸川 (Edogawa),2017-08-22,20:01～21:00,0.0550,0.0486,0.0521,
江戸川 (Edogawa),2017-08-22,19:01～20:00,0.0559,0.0492,0.0522,
江戸川 (Edogawa),2017-08-22,18:01～19:00,0.0550,0.0479,0.0520,
江戸川 (Edogawa),2017-08-22,17:01～18:00,0.0555,0.0493,0.0522,
江戸川 (Edogawa),2017-08-22,16:01～17:00,0.0560,0.0483,0.0520,
江戸川 (Edogawa),2017-08-22,15:01～16:00,0.0555,0.0487,0.0520,
江戸川 (Edogawa),2017-08-22,14:01～15:00,0.0562,0.0478,0.0516,
江戸川 (Edogawa),2017-08-22,13:01～14:00,0.0544,0.0484,0.0513,
江戸川 (Edogawa),2017-08-22,12:01～13:00,0.0543,0.0482,0.0515,
江戸川 (Edogawa),2017-08-22,11:01～12:00,0.0544,0.0471,0.0510,
江戸川 (Edogawa),2017-08-22,10:01～11:00,0.0554,0.0479,0.0512,
江戸川 (Edogawa),2017-08-22,09:01～10:00,0.0551,0.0459,0.0508,
江戸川 (Edogawa),2017-08-22,08:01～09:00,0.0543,0.0467,0.0513,
江戸川 (Edogawa),2017-08-22,07:01～08:00,0.0544,0.0479,0.0511,
江戸川 (Edogawa),2017-08-22,06:01～07:00,0.0546,0.0475,0.0513,
江戸川 (Edogawa),2017-08-22,05:01～06:00,0.0555,0.0484,0.0515,
江戸川 (Edogawa),2017-08-22,04:01～05:00,0.0568,0.0478,0.0513,
江戸川 (Edogawa),2017-08-22,03:01～04:00,0.0547,0.0480,0.0516,
江戸川 (Edogawa),2017-08-22,02:01～03:00,0.0548,0.0465,0.0512,
江戸川 (Edogawa),2017-08-22,01:01～02:00,0.0553,0.0484,0.0514,
江戸川 (Edogawa),2017-08-22,00:01～01:00,0.0545,0.0486,0.0515,
江戸川 (Edogawa),2017-08-21,23:01～24:00,0.0550,0.0483,0.0516,
江戸川 (Edogawa),2017-08-21,22:01～23:00,0.0564,0.0482,0.0512,
江戸川 (Edogawa),2017-08-21,21:01～22:00,0.0551,0.0475,0.0511,
江戸川 (Edogawa),2017-08-21,20:01～21:00,0.0537,0.0464,0.0510,
江戸川 (Edogawa),2017-08-21,19:01～20:00,0.0536,0.0483,0.0514,
江戸川 (Edogawa),2017-08-21,18:01～19:00,0.0541,0.0478,0.0510,
江戸川 (Edogawa),2017-08-21,17:01～18:00,0.0547,0.0488,0.0517,
江戸川 (Edogawa),2017-08-21,16:01～17:00,0.0534,0.0486,0.0508,
江戸川 (Edogawa),2017-08-21,15:01～16:00,0.0540,0.0482,0.0510,
江戸川 (Edogawa),2017-08-21,14:01～15:00,0.0552,0.0470,0.0511,
江戸川 (Edogawa),2017-08-21,13:01～14:00,0.0549,0.0487,0.0514,
江戸川 (Edogawa),2017-08-21,12:01～13:00,0.0539,0.0477,0.0507,
江戸川 (Edogawa),2017-08-21,11:01～12:00,0.0538,0.0476,0.0505,
江戸川 (Edogawa),2017-08-21,10:01～11:00,0.0539,0.0480,0.0505,
江戸川 (Edogawa),2017-08-21,09:01～10:00,0.0532,0.0470,0.0503,
江戸川 (Edogawa),2017-08-21,08:01～09:00,0.0535,0.0469,0.0506,
江戸川 (Edogawa),2017-08-21,07:01～08:00,0.0536,0.0480,0.0509,
江戸川 (Edogawa),2017-08-21,06:01～07:00,0.0544,0.0475,0.0508,
江戸川 (Edogawa),2017-08-21,05:01～06:00,0.0557,0.0476,0.0508,
江戸川 (Edogawa),2017-08-21,04:01～05:00,0.0565,0.0477,0.0509,
江戸川 (Edogawa),2017-08-21,03:01～04:00,0.0559,0.0484,0.0512,
江戸川 (Edogawa),2017-08-21,02:01～03:00,0.0535,0.0475,0.0507,
江戸川 (Edogawa),2017-08-21,01:01～02:00,0.0540,0.0482,0.0510,
江戸川 (Edogawa),2017-08-21,00:01～01:00,0.0545,0.0478,0.0507,
